sat.trackr.live / text

‹ back to catalog

STARLINK-6347

NORAD 57359 · 2023-099AH

PAYLOAD ACTIVE UNKNOWN

§ Identity

Operator
Country
US
Launch date
2023-07-16
Launch site
AFETR
Launch vehicle
Mass (kg)
RCS (m²)

Purposes: comms

External: N2YO · Heavens-Above · Gunter

§ Orbital elements

Epoch: 2026-05-24T18:30:45.948096Z

Period
94.27 min
Inclination
43.0007°
Eccentricity
0.0001228
Mean motion
15.27584590 rev/d
Perigee alt
482.2 km
Apogee alt
483.9 km
Semi-major
6,861.2 km
B*
3.5307e-5
RAAN
172.1296°
Arg perigee
270.0617°
Mean anomaly
90.0094°
Rev number
15,783

§ Raw data

STARLINK-63471 57359U 23099AH  26144.77136514  .00000710  00000+0  35307-4 0  99922 57359  43.0007 172.1296 0001228 270.0617  90.0094 15.27584590157831

JSON: /api/v1/satellites/57359 · /tle

For live sub-satellite position, see the globe view (requires WebGL).

§ Visibility from observer

Set your observer location to see the next 7 days of passes ≥ 10°. The values pass through the URL so the page stays shareable.

No JS? Fill the form by hand. The geolocation button needs JavaScript.